This is the latest recevied weather packets stored in our database for station/object EA1GEC-10. If no packets are shown the sender has not sent any weather packets the latest 10 day(s).
| Time | Temp. | Humidity | Pressure | Rain* | Wind** | Luminosity | Snow |
|---|---|---|---|---|---|---|---|
| 1777377551 | 30.56° C | 44% | 1020 hPa | - | - | - | - |
| 1777376651 | 22.22° C | 51% | 1020.1 hPa | - | - | - | - |
| 1777375741 | 21.11° C | 52% | 1020.2 hPa | - | - | - | - |
| 1777374841 | 20.56° C | 54% | 1020.5 hPa | - | - | - | - |
| 1777373941 | 20° C | 56% | 1020.6 hPa | - | - | - | - |
| 1777373041 | 19.44° C | 57% | 1020.8 hPa | - | - | - | - |
| 1777372141 | 19.44° C | 57% | 1020.9 hPa | - | - | - | - |
| 1777371241 | 18.89° C | 57% | 1021.1 hPa | - | - | - | - |
| 1777370341 | 18.33° C | 59% | 1021.2 hPa | - | - | - | - |
| 1777369441 | 18.33° C | 60% | 1021.1 hPa | - | - | - | - |
| 1777368541 | 17.22° C | 63% | 1021.3 hPa | - | - | - | - |
| 1777367644 | 16.67° C | 63% | 1021.2 hPa | - | - | - | - |
| 1777366740 | 17.22° C | 64% | 1021.3 hPa | - | - | - | - |
| 1777365840 | 16.67° C | 65% | 1021.4 hPa | - | - | - | - |
| 1777364940 | 16.11° C | 67% | 1021.4 hPa | - | - | - | - |
| 1777364040 | 16.11° C | 68% | 1021.6 hPa | - | - | - | - |
| 1777363140 | 15.56° C | 69% | 1021.6 hPa | - | - | - | - |
| 1777362240 | 15.56° C | 70% | 1021.6 hPa | - | - | - | - |
| 1777361340 | 15.56° C | 71% | 1021.5 hPa | - | - | - | - |
| 1777360439 | 15° C | 72% | 1021.5 hPa | - | - | - | - |
| 1777359539 | 15° C | 73% | 1021.4 hPa | - | - | - | - |
| 1777286599 | 20.56° C | 57% | 1025.3 hPa | - | - | - | - |
| 1777285699 | 20° C | 59% | 1025.5 hPa | - | - | - | - |
| 1777284799 | 18.33° C | 61% | 1025.6 hPa | - | - | - | - |
| 1777283899 | 17.78° C | 62% | 1025.7 hPa | - | - | - | - |
* Rain since midnight (hover to see other rain measurements)
** Current wind speed in m/s (hover to see current wind gust speed)